sat.trackr.live / text

‹ back to catalog

STARLINK-31965

NORAD 59888 · 2024-100D

PAYLOAD ACTIVE UNKNOWN

§ Identity

Operator
Country
US
Launch date
2024-05-28
Launch site
AFETR
Launch vehicle
Mass (kg)
RCS (m²)

Purposes: comms

External: N2YO · Heavens-Above · Gunter

§ Orbital elements

Epoch: 2026-05-25T02:51:42.755904Z

Period
94.27 min
Inclination
43.0013°
Eccentricity
0.0001100
Mean motion
15.27592029 rev/d
Perigee alt
482.3 km
Apogee alt
483.8 km
Semi-major
6,861.2 km
B*
2.7643e-4
RAAN
53.9491°
Arg perigee
268.1823°
Mean anomaly
91.8903°
Rev number
11,274

§ Raw data

STARLINK-319651 59888U 24100D   26145.11924486  .00007355  00000+0  27643-3 0  99922 59888  43.0013  53.9491 0001100 268.1823  91.8903 15.27592029112741

JSON: /api/v1/satellites/59888 · /tle

For live sub-satellite position, see the globe view (requires WebGL).

§ Visibility from observer

Set your observer location to see the next 7 days of passes ≥ 10°. The values pass through the URL so the page stays shareable.

No JS? Fill the form by hand. The geolocation button needs JavaScript.